Location: Les Moreaux
(47.2278°N, 1.4966°E)
Time: 19:33:55
(UTC+00:00)

Cosmos 2082 Rocket - Pass Details

Date: 19 May 2025
Orbit: 831 x 853 km, 71.0° (Epoch: 21 June)

Event Time Altitude Azimuth Distance (km) Brightness Sun altitude
Exits shadow 23:23:30 11° 243° (WSW) 2,340 4.3 -22.5°
Maximum altitude 23:28:19 36° 308° (NW) 1,306 3.5 -22.6°
Drops below altitude 10° 23:33:29 10° 14° (NNE) 2,458 5.6 -22.7°
Sets 23:36:09 0° 23° (NNE) 3,399 6.4 -22.7°
